When you browse on this site, cookies collect data to enhance your experience and personalize the content and advertising you see.
Visit our Privacy Policy to learn more. By continuing to use the site, you agree to this use of cookies and data.
  • In Austria
  • List of Countries
  • For 7 days
  • Water Temperature
  • Weather Map
  • News
  • Weather Widgets
  • user-avatar
    Login

    Hourly Weather Buda (Lenin)

    Today, 27 January, Monday

    Time Temperature Precipitation Wind Pressure Humidity
    00:00 -2°C° 0 mm 3 mps 749 mmHg 93%
    01:00 -2°C° 0 mm 3 mps 749 mmHg 93%
    02:00 -2°C° 0 mm 2 mps 749 mmHg 93%
    03:00 -2°C° 0 mm 2 mps 749 mmHg 93%
    04:00 -2°C° 0 mm 2 mps 749 mmHg 94%
    05:00 -3°C° 0 mm 2 mps 749 mmHg 95%
    06:00 -2°C° 0 mm 2 mps 748 mmHg 94%
    07:00 -2°C° 0 mm 2 mps 748 mmHg 93%
    08:00 -2°C° 0 mm 2 mps 748 mmHg 92%
    09:00 -2°C° 0 mm 2 mps 749 mmHg 89%
    10:00 -1°C° 0 mm 2 mps 749 mmHg 86%
    11:00 +1°C° 0 mm 2 mps 749 mmHg 84%
    12:00 +1°C° 0 mm 2 mps 748 mmHg 86%
    13:00 +1°C° 0 mm 2 mps 748 mmHg 87%
    14:00 0°C° 0 mm 3 mps 748 mmHg 89%
    15:00 +1°C° 0.1 mm 2 mps 747 mmHg 92%
    16:00 -1°C° 0.1 mm 2 mps 747 mmHg 95%
    17:00 -1°C° 0.1 mm 2 mps 747 mmHg 97%
    18:00 -1°C° 0 mm 2 mps 747 mmHg 97%
    19:00 -1°C° 0 mm 3 mps 747 mmHg 97%
    20:00 -1°C° 0 mm 3 mps 747 mmHg 97%
    21:00 -1°C° 0 mm 3 mps 746 mmHg 96%
    22:00 -1°C° 0 mm 3 mps 746 mmHg 96%
    23:00 -1°C° 0 mm 2 mps 746 mmHg 96%

    Tomorrow, 28 January, Tuesday

    Time Temperature Precipitation Wind Pressure Humidity
    00:00 -1°C° 0 mm 2 mps 746 mmHg 96%
    01:00 -2°C° 0 mm 2 mps 745 mmHg 95%
    02:00 -2°C° 0 mm 2 mps 745 mmHg 95%
    03:00 -2°C° 0 mm 2 mps 745 mmHg 95%
    04:00 -2°C° 0 mm 2 mps 745 mmHg 94%
    05:00 -2°C° 0 mm 2 mps 745 mmHg 93%
    06:00 -2°C° 0 mm 2 mps 745 mmHg 92%
    07:00 -3°C° 0 mm 2 mps 745 mmHg 91%
    08:00 -3°C° 0 mm 2 mps 745 mmHg 90%
    09:00 -2°C° 0 mm 2 mps 744 mmHg 86%
    10:00 -1°C° 0 mm 2 mps 744 mmHg 82%
    11:00 +1°C° 0 mm 2 mps 744 mmHg 78%
    12:00 +1°C° 0 mm 2 mps 744 mmHg 78%
    13:00 +2°C° 0 mm 2 mps 744 mmHg 77%
    14:00 +2°C° 0 mm 2 mps 743 mmHg 77%
    15:00 +1°C° 0 mm 2 mps 743 mmHg 80%
    16:00 +1°C° 0 mm 2 mps 743 mmHg 83%
    17:00 -1°C° 0 mm 2 mps 743 mmHg 86%
    18:00 -1°C° 0 mm 2 mps 742 mmHg 87%
    19:00 -2°C° 0 mm 3 mps 742 mmHg 88%
    20:00 -2°C° 0 mm 3 mps 742 mmHg 89%
    21:00 -2°C° 0 mm 3 mps 742 mmHg 91%
    22:00 -2°C° 0 mm 3 mps 742 mmHg 93%
    23:00 -2°C° 0 mm 3 mps 741 mmHg 95%

    Day after tomorrow, 29 January, Wednesday

    Time Temperature Precipitation Wind Pressure Humidity
    00:00 -2°C° 0 mm 3 mps 741 mmHg 94%
    01:00 -2°C° 0 mm 3 mps 740 mmHg 94%
    02:00 -2°C° 0 mm 3 mps 740 mmHg 93%
    03:00 -3°C° 0 mm 4 mps 739 mmHg 94%
    04:00 -2°C° 0 mm 4 mps 739 mmHg 94%
    05:00 -2°C° 0 mm 4 mps 738 mmHg 95%
    06:00 -2°C° 0 mm 5 mps 738 mmHg 95%
    07:00 -1°C° 0 mm 5 mps 737 mmHg 95%
    08:00 0°C° 0 mm 5 mps 737 mmHg 96%
    09:00 0°C° 0.1 mm 5 mps 737 mmHg 96%
    10:00 0°C° 0.1 mm 5 mps 736 mmHg 95%
    11:00 0°C° 0.1 mm 5 mps 736 mmHg 95%
    12:00 +1°C° 0.2 mm 5 mps 735 mmHg 95%
    13:00 +1°C° 0.2 mm 5 mps 735 mmHg 95%
    14:00 +1°C° 0.2 mm 5 mps 734 mmHg 96%
    15:00 +1°C° 0.5 mm 5 mps 734 mmHg 96%
    16:00 0°C° 0.5 mm 5 mps 733 mmHg 96%
    17:00 0°C° 0.5 mm 5 mps 733 mmHg 96%
    18:00 0°C° 0.3 mm 4 mps 733 mmHg 96%
    19:00 0°C° 0.3 mm 4 mps 732 mmHg 96%
    20:00 0°C° 0.3 mm 4 mps 732 mmHg 96%
    21:00 0°C° 0.4 mm 4 mps 732 mmHg 97%
    22:00 0°C° 0.4 mm 4 mps 732 mmHg 97%
    23:00 +1°C° 0.4 mm 3 mps 731 mmHg 97%

    30 January, Thursday

    Time Temperature Precipitation Wind Pressure Humidity
    00:00 0°C° 0.7 mm 4 mps 731 mmHg 97%
    01:00 0°C° 0.7 mm 4 mps 731 mmHg 97%
    02:00 0°C° 0.7 mm 4 mps 731 mmHg 97%
    03:00 0°C° 1 mm 4 mps 730 mmHg 97%
    04:00 0°C° 1 mm 4 mps 730 mmHg 97%
    05:00 0°C° 1 mm 4 mps 730 mmHg 97%
    06:00 0°C° 1 mm 4 mps 730 mmHg 97%
    07:00 0°C° 1 mm 4 mps 731 mmHg 97%
    08:00 0°C° 1 mm 5 mps 731 mmHg 97%
    09:00 0°C° 0.9 mm 5 mps 731 mmHg 97%
    10:00 0°C° 0.9 mm 5 mps 731 mmHg 97%
    11:00 -1°C° 0.9 mm 6 mps 732 mmHg 97%
    12:00 -1°C° 0.7 mm 6 mps 732 mmHg 97%
    13:00 -1°C° 0.7 mm 7 mps 733 mmHg 96%
    14:00 -1°C° 0.7 mm 7 mps 733 mmHg 96%
    15:00 -1°C° 0.2 mm 7 mps 733 mmHg 96%
    16:00 -1°C° 0.2 mm 7 mps 734 mmHg 96%
    17:00 -1°C° 0.2 mm 7 mps 735 mmHg 95%
    18:00 -1°C° 0.1 mm 7 mps 735 mmHg 96%
    19:00 -2°C° 0.1 mm 6 mps 735 mmHg 96%
    20:00 -2°C° 0.1 mm 6 mps 736 mmHg 96%
    21:00 -2°C° 0.2 mm 6 mps 736 mmHg 94%
    22:00 -2°C° 0.2 mm 6 mps 736 mmHg 93%
    23:00 -2°C° 0.2 mm 6 mps 736 mmHg 91%

    31 January, Friday

    Time Temperature Precipitation Wind Pressure Humidity
    00:00 -2°C° 0 mm 6 mps 736 mmHg 91%
    01:00 -2°C° 0 mm 6 mps 737 mmHg 90%
    02:00 -2°C° 0 mm 6 mps 737 mmHg 89%
    03:00 -2°C° 0 mm 6 mps 737 mmHg 90%
    04:00 -2°C° 0 mm 6 mps 737 mmHg 91%
    05:00 -1°C° 0 mm 5 mps 737 mmHg 92%
    06:00 -2°C° 0 mm 5 mps 737 mmHg 92%
    07:00 -2°C° 0 mm 5 mps 737 mmHg 92%
    08:00 -4°C° 0 mm 5 mps 737 mmHg 93%
    09:00 -2°C° 0 mm 4 mps 736 mmHg 90%
    10:00 -2°C° 0 mm 4 mps 736 mmHg 88%
    11:00 -1°C° 0 mm 3 mps 736 mmHg 85%
    12:00 0°C° 0 mm 3 mps 736 mmHg 85%
    13:00 0°C° 0 mm 3 mps 736 mmHg 85%
    14:00 +1°C° 0 mm 2 mps 735 mmHg 85%
    15:00 +1°C° 0 mm 2 mps 735 mmHg 88%
    16:00 +2°C° 0 mm 1 mps 735 mmHg 91%
    17:00 0°C° 0 mm 0 mps 735 mmHg 94%
    18:00 0°C° 0 mm 0 mps 735 mmHg 93%
    19:00 +1°C° 0 mm 1 mps 736 mmHg 93%
    20:00 +1°C° 0 mm 1 mps 736 mmHg 92%
    21:00 +1°C° 0 mm 1 mps 736 mmHg 91%
    22:00 +1°C° 0 mm 1 mps 736 mmHg 90%
    23:00 +1°C° 0 mm 1 mps 737 mmHg 89%

    1 February, Saturday

    Time Temperature Precipitation Wind Pressure Humidity
    00:00 -2°C° 0 mm 2 mps 737 mmHg 89%
    01:00 -2°C° 0 mm 2 mps 738 mmHg 88%
    02:00 -3°C° 0 mm 2 mps 739 mmHg 88%
    03:00 -3°C° 0 mm 2 mps 739 mmHg 90%
    04:00 -3°C° 0 mm 2 mps 740 mmHg 92%
    05:00 -3°C° 0 mm 2 mps 740 mmHg 93%
    06:00 -3°C° 0 mm 2 mps 741 mmHg 94%
    07:00 -3°C° 0 mm 2 mps 741 mmHg 94%
    08:00 -3°C° 0 mm 2 mps 742 mmHg 94%
    09:00 -2°C° 0 mm 2 mps 743 mmHg 90%
    10:00 -2°C° 0 mm 2 mps 743 mmHg 86%
    11:00 -1°C° 0 mm 2 mps 744 mmHg 82%
    12:00 +1°C° 0 mm 2 mps 744 mmHg 80%
    13:00 +1°C° 0 mm 2 mps 744 mmHg 78%
    14:00 0°C° 0 mm 3 mps 744 mmHg 76%
    15:00 0°C° 0 mm 3 mps 744 mmHg 79%
    16:00 -1°C° 0 mm 3 mps 744 mmHg 82%
    17:00 -1°C° 0 mm 3 mps 744 mmHg 86%
    18:00 -1°C° 0 mm 3 mps 744 mmHg 87%
    19:00 -1°C° 0 mm 3 mps 744 mmHg 88%
    20:00 -2°C° 0 mm 4 mps 744 mmHg 89%
    21:00 -2°C° 0.1 mm 4 mps 744 mmHg 91%
    22:00 -2°C° 0.1 mm 4 mps 743 mmHg 92%
    23:00 -1°C° 0.1 mm 4 mps 743 mmHg 93%
    Show more